Home   Weather   Guarulhos   Past weeks
Flag for Brazil

Past Weather in Guarulhos, São Paulo, Brazil — Yesterday and Last 2 Weeks

Now
63 °F

Fog.


Feels Like: 63 °F
Forecast: N/A
Wind: 7 mph from Northeast

Location: Guarulhos Civ / Mil

Current Time: Oct 21, 2019 at 7:38:53 pm

Latest Report: Oct 21, 2019 at 6:00 pm


Visibility: 3 mi

Pressure: 29.86 "Hg (27.31 "Hg at 759m altitude)

Humidity: 94%

Dew Point: 61 °F

Location of GuarulhosLocation

Past Weather in Guarulhos — Graph

°F

Guarulhos Temperature Yesterday

Maximum temperature yesterday: 66 °F (at 2:00 pm)
Minimum temperature yesterday: 59 °F (at 8:00 pm)
Average temperature yesterday: 62 °F

High & Low Weather Summary for the Past Weeks

 TemperatureHumidityPressure
High95 °F (Oct 13, 2:00 pm)100% (Oct 7, 1:00 am)30.21 "Hg (Oct 7, 1:00 am)
Low59 °F (Oct 20, 8:00 pm)30% (Oct 13, 2:00 pm)29.86 "Hg (Oct 21, 6:00 pm)
Average69 °F83%30.08 "Hg
* Reported Oct 6 6:00 pm — Oct 21 6:00 pm, Guarulhos. Weather by CustomWeather, © 2019

Note: Actual official high and low records may vary slightly from our data, if they occured in-between our weather recording intervals... More about our weather records

Advertising

Guarulhos Weather History for the Previous 24 Hours

Scroll right to see more
 ConditionsComfort  
Time TempWeatherWind HumidityBarometerVisibility
6:00 pm
Mon, Oct 21
63 °FFog.7 mph94%29.86 "Hg3 mi
5:00 pm63 °FLight rain. Fog.6 mph94%29.89 "Hg3 mi
4:00 pm63 °FLight rain. Mostly cloudy.2 mph94%29.92 "Hg4 mi
3:00 pm63 °FFog.5 mph88%29.92 "Hg3 mi
2:00 pm66 °FFog.9 mph83%29.92 "Hg2 mi
1:00 pm70 °FOvercast.2 mph69%29.92 "HgN/A
12:00 pm68 °FPartly sunny.5 mph73%29.95 "HgN/A
11:00 am66 °FPartly sunny.6 mph73%29.98 "HgN/A
10:00 am64 °FOvercast.3 mph83%30.01 "HgN/A
9:00 am63 °FOvercast.6 mph83%30.01 "HgN/A
8:00 am61 °FOvercast.6 mph88%30.01 "HgN/A
7:00 am59 °FOvercast.6 mph88%29.98 "HgN/A
6:43 am59 °FOvercast.5 mph88%29.98 "HgN/A
6:00 am59 °FOvercast.6 mph82%29.98 "HgN/A
5:00 am59 °FOvercast.3 mph82%29.98 "HgN/A
4:00 am59 °FMostly cloudy.6 mph82%29.98 "HgN/A
3:00 am59 °FMostly cloudy.6 mph82%29.98 "HgN/A
2:00 am59 °FMostly cloudy.6 mph88%29.98 "HgN/A
1:00 am59 °FOvercast.6 mph88%30.01 "HgN/A
12:00 am59 °FMostly cloudy.6 mph82%30.04 "HgN/A
11:00 pm
Sun, Oct 20
59 °FMostly cloudy.7 mph82%30.04 "HgN/A
10:00 pm59 °FOvercast.6 mph82%30.04 "HgN/A
9:00 pm59 °FOvercast.8 mph82%30.04 "HgN/A
8:00 pm59 °FOvercast.8 mph82%30.04 "HgN/A
7:00 pm61 °FOvercast.8 mph77%30.01 "HgN/A
Weather by CustomWeather, © 2019

See weather overview